| time (UTC) | temp C | wind direction | speed KPH | gust KPH | rain 1hr cm | rain 24hr cm | rain mn cm | humidity % | barometer mb |
| 20260508154655 | 18 | 0 | 0.0 | 0.0 | 0.00 | 0.58 | 0.00 | 67 | 994.2 |
| 20260508153154 | 18 | 0 | 0.0 | 0.0 | 0.00 | 0.61 | 0.00 | 62 | 994.5 |
| 20260508151653 | 17 | 0 | 0.0 | 0.0 | 0.00 | 0.64 | 0.00 | 69 | 994.6 |
| 20260508150151 | 17 | 0 | 0.0 | 0.0 | 0.00 | 0.66 | 0.00 | 65 | 994.6 |
| 20260508144650 | 16 | 0 | 0.0 | 0.0 | 0.00 | 0.69 | 0.00 | 68 | 994.5 |
| 20260508143151 | 15 | 0 | 0.0 | 0.0 | 0.00 | 0.71 | 0.00 | 78 | 994.4 |
| 20260508141649 | 13 | 0 | 0.0 | 0.0 | 0.00 | 0.74 | 0.00 | 84 | 994.3 |
| 20260508140149 | 12 | 0 | 0.0 | 0.0 | 0.00 | 0.76 | 0.00 | 93 | 994.2 |
| 20260508134648 | 11 | 0 | 0.0 | 0.0 | 0.00 | 0.79 | 0.00 | 96 | 994.1 |
| 20260508133145 | 10 | 0 | 0.0 | 0.0 | 0.00 | 0.84 | 0.00 | 96 | 994.0 |
| 20260508131642 | 10 | 0 | 0.0 | 0.0 | 0.00 | 0.86 | 0.00 | 96 | 993.9 |
| 20260508130142 | 10 | 0 | 0.0 | 0.0 | 0.00 | 0.89 | 0.00 | 96 | 993.9 |
| 20260508124640 | 9 | 0 | 0.0 | 0.0 | 0.00 | 0.91 | 0.00 | 96 | 994.0 |
| 20260508121640 | 8 | 0 | 0.0 | 0.0 | 0.00 | 0.97 | 0.00 | 96 | 993.6 |
| 20260508120138 | 8 | 0 | 0.0 | 0.0 | 0.00 | 0.97 | 0.00 | 96 | 993.4 |
| 20260508114637 | 8 | 0 | 0.0 | 0.0 | 0.00 | 0.99 | 0.00 | 96 | 993.2 |
| 20260508113133 | 8 | 0 | 0.0 | 0.0 | 0.00 | 1.02 | 0.00 | 96 | 993.1 |
| 20260508111626 | 8 | 0 | 0.0 | 0.0 | 0.00 | 1.04 | 0.00 | 96 | 992.8 |
| 20260508104626 | 8 | 0 | 0.0 | 0.0 | 0.00 | 1.07 | 0.00 | 96 | 992.4 |
| 20260508100126 | 8 | 0 | 0.0 | 0.0 | 0.00 | 1.14 | 0.00 | 96 | 991.6 |
| 20260508094624 | 8 | 0 | 0.0 | 0.0 | 0.00 | 1.14 | 0.00 | 96 | 991.5 |
| 20260508093125 | 9 | 0 | 0.0 | 0.0 | 0.00 | 1.17 | 0.00 | 96 | 991.6 |
| 20260508091620 | 9 | 0 | 0.0 | 0.0 | 0.00 | 1.17 | 0.00 | 96 | 991.4 |
| 20260508083111 | 10 | 0 | 0.0 | 0.0 | 0.00 | 1.19 | 0.00 | 96 | 990.7 |
| 20260508081609 | 10 | 0 | 0.0 | 0.0 | 0.00 | 1.19 | 0.00 | 96 | 990.7 |
| 20260508074608 | 10 | 0 | 0.0 | 0.0 | 0.00 | 1.22 | 0.00 | 96 | 990.5 |
| 20260508073108 | 10 | 0 | 0.0 | 0.0 | 0.00 | 1.22 | 0.00 | 96 | 990.2 |
| 20260508071605 | 10 | 0 | 0.0 | 0.0 | 0.00 | 1.22 | 0.00 | 96 | 990.0 |
| 20260508064601 | 10 | 0 | 0.0 | 0.0 | 0.00 | 1.22 | 0.00 | 96 | 990.0 |
| 20260508063059 | 10 | 0 | 0.0 | 0.0 | 0.00 | 1.24 | 0.00 | 96 | 990.0 |
| 20260508061557 | 10 | 0 | 0.0 | 0.0 | 0.00 | 1.24 | 0.00 | 96 | 990.1 |
| 20260508060057 | 10 | 0 | 0.0 | 0.0 | 0.00 | 1.24 | 0.00 | 96 | 990.0 |
| 20260508054558 | 10 | 0 | 0.0 | 0.0 | 0.00 | 1.24 | 0.00 | 96 | 990.2 |
| 20260508051558 | 10 | 0 | 0.0 | 0.0 | 0.00 | 1.27 | 0.00 | 96 | 990.3 |
| 20260508050050 | 10 | 0 | 0.0 | 0.0 | 0.00 | 1.27 | 0.00 | 96 | 990.0 |
| 20260508044547 | 10 | 0 | 0.0 | 0.0 | 0.00 | 1.30 | 0.00 | 96 | 990.0 |
| 20260508043047 | 10 | 0 | 0.0 | 0.0 | 0.00 | 1.30 | 0.00 | 96 | 989.8 |
| 20260508041546 | 11 | 0 | 0.0 | 0.0 | 0.00 | 1.32 | 0.00 | 96 | 989.8 |
| 20260508033043 | 11 | 0 | 0.0 | 0.0 | 0.00 | 1.37 | 1.35 | 96 | 989.3 |
| 20260508031543 | 11 | 0 | 0.0 | 0.0 | 0.00 | 1.37 | 1.35 | 96 | 989.5 |
| 20260508030040 | 11 | 0 | 0.0 | 0.0 | 0.00 | 1.37 | 1.35 | 96 | 989.5 |
| 20260508024535 | 11 | 0 | 0.0 | 0.0 | 0.00 | 1.40 | 1.35 | 96 | 989.1 |
| 20260508021531 | 11 | 0 | 0.0 | 0.0 | 0.00 | 1.40 | 1.35 | 96 | 988.9 |
| 20260508020030 | 11 | 0 | 0.0 | 0.0 | 0.00 | 1.40 | 1.35 | 96 | 988.9 |
| 20260508014529 | 11 | 0 | 0.0 | 0.0 | 0.00 | 1.40 | 1.35 | 96 | 988.5 |
| 20260508013024 | 11 | 0 | 0.0 | 0.0 | 0.00 | 1.40 | 1.35 | 96 | 988.2 |
| 20260508011522 | 12 | 0 | 0.0 | 0.0 | 0.00 | 1.40 | 1.35 | 96 | 988.1 |
| 20260508010020 | 12 | 0 | 0.0 | 0.0 | 0.00 | 1.40 | 1.35 | 96 | 988.1 |
| 20260508004519 | 12 | 0 | 0.0 | 0.0 | 0.00 | 1.40 | 1.35 | 96 | 988.0 |
| 20260508003018 | 12 | 0 | 0.0 | 0.0 | 0.00 | 1.40 | 1.35 | 96 | 987.9 |
| 20260508001516 | 12 | 0 | 0.0 | 0.0 | 0.00 | 1.40 | 1.35 | 96 | 987.7 |
| 20260508000015 | 12 | 0 | 0.0 | 0.0 | 0.00 | 1.40 | 1.35 | 96 | 987.6 |
| 20260507234514 | 12 | 0 | 0.0 | 0.0 | 0.00 | 1.40 | 1.35 | 96 | 987.2 |
| 20260507231513 | 12 | 0 | 0.0 | 0.0 | 0.00 | 1.40 | 1.35 | 96 | 986.8 |
| 20260507230010 | 12 | 0 | 0.0 | 0.0 | 0.00 | 1.40 | 1.35 | 96 | 986.9 |
| 20260507224508 | 13 | 0 | 0.0 | 0.0 | 0.00 | 1.40 | 1.35 | 96 | 986.6 |
| 20260507223006 | 13 | 0 | 0.0 | 0.0 | 0.00 | 1.40 | 1.35 | 96 | 986.4 |
| 20260507214501 | 13 | 0 | 0.0 | 0.0 | 0.00 | 1.40 | 1.35 | 96 | 986.6 |
| 20260507213000 | 13 | 0 | 0.0 | 0.0 | 0.00 | 1.40 | 1.35 | 96 | 986.6 |
| 20260507211500 | 13 | 0 | 0.0 | 0.0 | 0.00 | 1.40 | 1.35 | 96 | 986.7 |
| 20260507205956 | 13 | 0 | 0.0 | 0.0 | 0.00 | 1.40 | 1.35 | 95 | 986.3 |
| 20260507204455 | 13 | 0 | 0.0 | 0.0 | 0.00 | 1.40 | 1.35 | 96 | 986.3 |
| 20260507202955 | 13 | 0 | 0.0 | 0.0 | 0.00 | 1.40 | 1.35 | 96 | 986.1 |
| 20260507201456 | 13 | 0 | 0.0 | 0.0 | 0.03 | 1.40 | 1.35 | 95 | 986.2 |
| 20260507195955 | 13 | 0 | 0.0 | 0.0 | 0.05 | 1.40 | 1.35 | 96 | 986.1 |
| 20260507194450 | 13 | 0 | 0.0 | 0.0 | 0.10 | 1.40 | 1.35 | 95 | 986.3 |
| 20260507192950 | 13 | 0 | 0.0 | 0.0 | 0.13 | 1.40 | 1.35 | 95 | 986.2 |
| 20260507191450 | 13 | 0 | 0.0 | 0.0 | 0.15 | 1.37 | 1.32 | 95 | 986.4 |
| 20260507185947 | 13 | 0 | 0.0 | 0.0 | 0.18 | 1.35 | 1.30 | 95 | 986.3 |
| 20260507184445 | 13 | 0 | 0.0 | 0.0 | 0.15 | 1.30 | 1.24 | 96 | 986.1 |
| 20260507182944 | 13 | 0 | 0.0 | 0.0 | 0.18 | 1.27 | 1.22 | 95 | 986.3 |
| 20260507181442 | 13 | 0 | 0.0 | 0.0 | 0.20 | 1.22 | 1.17 | 95 | 986.2 |
| 20260507174439 | 13 | 0 | 0.0 | 0.0 | 0.20 | 1.14 | 1.09 | 96 | 986.0 |
| 20260507171435 | 13 | 0 | 0.0 | 0.0 | 0.15 | 1.02 | 0.97 | 96 | 985.8 |
| 20260507165934 | 14 | 0 | 0.0 | 0.0 | 0.15 | 0.99 | 0.94 | 95 | 985.7 |
| 20260507164434 | 14 | 0 | 0.0 | 0.0 | 0.13 | 0.94 | 0.91 | 95 | 985.6 |
| 20260507161429 | 17 | 0 | 0.0 | 0.0 | 0.10 | 0.86 | 0.81 | 95 | 986.0 |